| time (UTC) | temp F | wind direction | speed MPH | gust MPH | rain 1hr in | rain 24hr in | rain mn in | humidity % | barometer mb |
| 20260505041515 | 65 | 175 | 4.0 | 7.0 | 0.00 | 0.00 | 0.00 | 73 | 1009.6 |
| 20260505040516 | 65 | 159 | 4.0 | 7.0 | 0.00 | 0.00 | 0.00 | 73 | 1009.5 |
| 20260505035515 | 66 | 161 | 6.0 | 7.0 | 0.00 | 0.00 | 0.00 | 73 | 1009.4 |
| 20260505034515 | 66 | 170 | 5.0 | 7.0 | 0.00 | 0.00 | 0.00 | 72 | 1009.2 |
| 20260505033516 | 67 | 170 | 4.0 | 7.0 | 0.00 | 0.00 | 0.00 | 70 | 1009.1 |
| 20260505032515 | 68 | 168 | 5.0 | 9.0 | 0.00 | 0.00 | 0.00 | 70 | 1009.0 |
| 20260505031515 | 69 | 176 | 5.0 | 9.0 | 0.00 | 0.00 | 0.00 | 68 | 1008.9 |
| 20260505030515 | 70 | 159 | 7.0 | 9.0 | 0.00 | 0.00 | 0.00 | 65 | 1008.8 |
| 20260505025515 | 74 | 192 | 3.0 | 5.0 | 0.00 | 0.00 | 0.00 | 60 | 1008.6 |
| 20260505024516 | 74 | 256 | 2.0 | 4.0 | 0.00 | 0.00 | 0.00 | 58 | 1008.6 |
| 20260505023515 | 75 | 244 | 2.0 | 4.0 | 0.00 | 0.00 | 0.00 | 57 | 1008.6 |
| 20260505022515 | 76 | 236 | 2.0 | 4.0 | 0.00 | 0.00 | 0.00 | 56 | 1008.6 |
| 20260505021516 | 73 | 325 | 3.0 | 7.0 | 0.00 | 0.00 | 0.00 | 59 | 1008.5 |
| 20260505020516 | 75 | 307 | 4.0 | 8.0 | 0.00 | 0.00 | 0.00 | 59 | 1008.5 |
| 20260505015515 | 77 | 182 | 4.0 | 9.0 | 0.00 | 0.00 | 0.00 | 58 | 1008.4 |
| 20260505014515 | 77 | 168 | 5.0 | 8.0 | 0.00 | 0.00 | 0.00 | 58 | 1008.3 |
| 20260505013515 | 77 | 167 | 6.0 | 8.0 | 0.00 | 0.00 | 0.00 | 58 | 1008.3 |
| 20260505012515 | 78 | 174 | 5.0 | 8.0 | 0.00 | 0.00 | 0.00 | 57 | 1008.3 |
| 20260505011514 | 78 | 167 | 5.0 | 9.0 | 0.00 | 0.00 | 0.00 | 57 | 1008.4 |
| 20260505010515 | 77 | 156 | 6.0 | 9.0 | 0.00 | 0.00 | 0.00 | 57 | 1008.4 |
| 20260505005514 | 79 | 178 | 5.0 | 8.0 | 0.00 | 0.00 | 0.00 | 55 | 1008.4 |
| 20260505004515 | 78 | 167 | 6.0 | 8.0 | 0.00 | 0.00 | 0.00 | 54 | 1008.5 |
| 20260505003515 | 78 | 170 | 6.0 | 8.0 | 0.00 | 0.00 | 0.00 | 54 | 1008.5 |
| 20260505002515 | 79 | 171 | 5.0 | 8.0 | 0.00 | 0.00 | 0.00 | 52 | 1008.5 |
| 20260505001515 | 79 | 172 | 5.0 | 7.0 | 0.00 | 0.00 | 0.00 | 52 | 1008.6 |
| 20260505000516 | 79 | 157 | 4.0 | 6.0 | 0.00 | 0.00 | 0.00 | 52 | 1008.6 |
| 20260504235515 | 80 | 159 | 4.0 | 6.0 | 0.00 | 0.00 | 0.00 | 51 | 1008.6 |
| 20260504234515 | 80 | 184 | 4.0 | 7.0 | 0.00 | 0.00 | 0.00 | 50 | 1008.7 |
| 20260504233515 | 80 | 159 | 4.0 | 7.0 | 0.00 | 0.00 | 0.00 | 51 | 1008.7 |
| 20260504232515 | 80 | 179 | 4.0 | 7.0 | 0.00 | 0.00 | 0.00 | 50 | 1008.6 |
| 20260504231515 | 80 | 148 | 4.0 | 7.0 | 0.00 | 0.00 | 0.00 | 50 | 1008.6 |
| 20260504230535 | 79 | 162 | 4.0 | 8.0 | 0.00 | 0.00 | 0.00 | 51 | 1008.8 |
| 20260504225536 | 79 | 166 | 4.0 | 8.0 | 0.00 | 0.00 | 0.00 | 51 | 1008.9 |
| 20260504224536 | 78 | 140 | 5.0 | 8.0 | 0.00 | 0.00 | 0.00 | 51 | 1009.1 |
| 20260504223535 | 80 | 158 | 4.0 | 8.0 | 0.00 | 0.00 | 0.00 | 51 | 1009.1 |
| 20260504222515 | 80 | 174 | 4.0 | 6.0 | 0.00 | 0.00 | 0.00 | 50 | 1009.3 |
| 20260504221515 | 80 | 160 | 3.0 | 6.0 | 0.00 | 0.00 | 0.00 | 51 | 1009.4 |
| 20260504220515 | 79 | 180 | 3.0 | 7.0 | 0.00 | 0.00 | 0.00 | 53 | 1009.5 |
| 20260504215515 | 77 | 148 | 5.0 | 7.0 | 0.00 | 0.00 | 0.00 | 55 | 1009.6 |
| 20260504214515 | 77 | 140 | 4.0 | 8.0 | 0.00 | 0.00 | 0.00 | 56 | 1009.6 |
| 20260504213515 | 76 | 140 | 5.0 | 7.0 | 0.00 | 0.00 | 0.00 | 57 | 1009.7 |
| 20260504212515 | 76 | 157 | 4.0 | 8.0 | 0.00 | 0.00 | 0.00 | 58 | 1009.8 |
| 20260504211516 | 75 | 157 | 4.0 | 8.0 | 0.00 | 0.00 | 0.00 | 59 | 1009.9 |
| 20260504210515 | 75 | 151 | 5.0 | 8.0 | 0.00 | 0.00 | 0.00 | 59 | 1009.9 |
| 20260504205516 | 75 | 142 | 5.0 | 8.0 | 0.00 | 0.00 | 0.00 | 59 | 1010.0 |
| 20260504204555 | 76 | 158 | 4.0 | 8.0 | 0.00 | 0.00 | 0.00 | 59 | 1010.0 |
| 20260504203515 | 76 | 183 | 4.0 | 7.0 | 0.00 | 0.00 | 0.00 | 59 | 1010.0 |
| 20260504202515 | 75 | 151 | 4.0 | 7.0 | 0.00 | 0.00 | 0.00 | 60 | 1010.0 |
| 20260504201515 | 74 | 167 | 4.0 | 6.0 | 0.00 | 0.00 | 0.00 | 60 | 1010.0 |
| 20260504200515 | 74 | 169 | 3.0 | 8.0 | 0.00 | 0.00 | 0.00 | 60 | 1010.1 |
| 20260504195515 | 73 | 174 | 3.0 | 9.0 | 0.00 | 0.00 | 0.00 | 61 | 1010.0 |
| 20260504194515 | 73 | 159 | 4.0 | 7.0 | 0.00 | 0.00 | 0.00 | 60 | 1010.1 |
| 20260504193515 | 73 | 174 | 4.0 | 8.0 | 0.00 | 0.00 | 0.00 | 60 | 1010.1 |
| 20260504192515 | 73 | 164 | 5.0 | 8.0 | 0.00 | 0.00 | 0.00 | 59 | 1010.2 |
| 20260504191515 | 72 | 170 | 6.0 | 8.0 | 0.00 | 0.00 | 0.00 | 58 | 1010.2 |
| 20260504190516 | 73 | 166 | 5.0 | 6.0 | 0.00 | 0.00 | 0.00 | 56 | 1010.4 |
| 20260504185515 | 75 | 166 | 3.0 | 5.0 | 0.00 | 0.00 | 0.00 | 53 | 1010.4 |
| 20260504184515 | 76 | 171 | 2.0 | 4.0 | 0.00 | 0.00 | 0.00 | 53 | 1010.4 |
| 20260504183514 | 74 | 165 | 2.0 | 6.0 | 0.00 | 0.00 | 0.00 | 56 | 1010.4 |
| 20260504182515 | 73 | 163 | 4.0 | 6.0 | 0.00 | 0.00 | 0.00 | 57 | 1010.4 |
| 20260504181515 | 74 | 170 | 3.0 | 5.0 | 0.00 | 0.00 | 0.00 | 56 | 1010.5 |
| 20260504180515 | 72 | 171 | 4.0 | 7.0 | 0.00 | 0.00 | 0.00 | 58 | 1010.4 |
| 20260504175515 | 73 | 167 | 4.0 | 7.0 | 0.00 | 0.00 | 0.00 | 56 | 1010.4 |
| 20260504174515 | 72 | 149 | 3.0 | 5.0 | 0.00 | 0.00 | 0.00 | 57 | 1010.3 |
| 20260504173515 | 71 | 159 | 2.0 | 4.0 | 0.00 | 0.00 | 0.00 | 59 | 1010.4 |
| 20260504172555 | 70 | 164 | 3.0 | 5.0 | 0.00 | 0.00 | 0.00 | 60 | 1010.5 |
| 20260504171535 | 69 | 159 | 3.0 | 5.0 | 0.00 | 0.00 | 0.00 | 60 | 1010.5 |
| 20260504170535 | 69 | 147 | 3.0 | 6.0 | 0.00 | 0.00 | 0.00 | 58 | 1010.5 |
| 20260504150515 | 61 | 98 | 1.0 | 3.0 | 0.00 | 0.00 | 0.00 | 73 | 1009.9 |
| 20260504140535 | 63 | 140 | 0.0 | 1.0 | 0.00 | 0.00 | 0.00 | 70 | 1009.6 |
| 20260504130516 | 55 | 302 | 2.0 | 3.0 | 0.00 | 0.00 | 0.00 | 78 | 1009.2 |
| 20260504110535 | 56 | 16 | 1.0 | 2.0 | 0.00 | 0.00 | 0.00 | 76 | 1008.9 |
| 20260504100517 | 57 | 277 | 1.0 | 1.0 | 0.00 | 0.00 | 0.00 | 76 | 1009.0 |
| 20260504081515 | 60 | 317 | 1.0 | 2.0 | 0.00 | 0.00 | 0.00 | 70 | 1008.8 |
| 20260504080515 | 60 | 9 | 0.0 | 1.0 | 0.00 | 0.00 | 0.00 | 70 | 1008.6 |
| 20260504050515 | 66 | 317 | 1.0 | 3.0 | 0.00 | 0.00 | 0.00 | 61 | 1008.8 |